CAPE
9 8 8 9 9 10 11 9 14 14 7 11 12 7 10 9 27 20 33 31 22 0 0 0 1 2 1 11 0 6 1 0 0 0 0 0 0 0 0 2 4 8 0 0 0
8 8 6 7 8 10 15 14 17 20 21 29 30 24 10 24 24 29 13 0 29 1 6 14 6 3 16 13 16 17 6 0 0 4 2 2 1 1 0 0 0 2 12 4 0
9 8 9 9 13 11 15 24 21 22 27 31 23 9 0 9 19 43 65 10 31 26 7 7 0 0 1 14 18 18 16 3 2 4 10 14 12 15 23 19 19 13 1 9 5
6 7 10 12 16 18 19 23 26 31 35 20 14 17 9 18 1 7 20 5 0 0 0 0 0 1 12 2 14 24 19 13 10 12 10 5 6 18 19 10 0 0 0 1 0
7 8 14 13 15 27 26 29 27 27 17 13 0 3 5 7 0 0 0 0 0 0 0 0 0 12 16 26 20 14 13 3 0 2 5 9 9 9 1 0 0 1 0 4 0
7 7 4 14 20 27 26 28 26 15 4 0 3 13 10 1 0 0 0 0 0 0 1 0 0 2 7 4 4 3 4 0 0 0 0 4 7 0 2 0 7 13 1 17 0
7 6 5 8 9 3 6 4 7 3 0 5 27 8 7 0 0 0 0 0 0 0 0 0 0 0 4 0 0 0 1 0 0 0 1 0 0 0 4 16 6 1 10 29 3
6 4 3 4 3 0 0 2 1 0 0 0 0 5 5 0 0 0 0 0 0 0 0 0 0 1 0 0 0 0 0 0 0 0 0 0 3 0 1 11 23 5 0 0 29
5 3 2 3 0 0 0 0 0 0 0 0 7 7 2 0 0 0 0 0 0 0 0 0 0 1 0 0 0 0 0 0 0 0 0 4 3 0 3 4 6 15 1 9 0
3 1 1 3 0 0 0 0 0 0 0 0 0 0 0 0 0 0 0 0 0 0 0 0 0 0 1 0 0 0 0 0 0 0 0 0 0 0 0 0 2 5 2 4 4
2 1 0 1 0 0 0 0 0 0 0 0 0 0 0 0 0 0 0 0 0 0 0 0 0 0 0 0 0 0 0 0 0 0 0 0 0 0 0 0 0 1 8 7 4
1 0 0 0 0 0 0 0 0 1 0 0 0 0 0 0 0 0 0 0 0 0 0 0 0 0 0 0 0 0 0 0 0 0 0 0 0 0 0 0 0 8 22 2 6
1 0 0 0 0 0 0 0 0 2 1 0 0 0 0 0 0 0 0 0 0 0 0 0 0 0 0 0 0 0 0 0 0 0 0 0 0 1 0 0 0 0 0 6 13
1 1 0 0 0 0 0 0 0 0 8 0 0 0 0 0 0 0 0 0 0 0 0 0 0 0 0 0 0 0 0 0 0 0 0 0 0 0 0 0 0 0 0 0 0
4 0 0 0 0 0 0 0 0 2 1 0 0 0 0 0 0 0 0 0 0 0 0 0 0 0 0 0 0 0 0 0 0 0 0 0 8 0 15 0 0 0 0 0 0
0 0 0 0 0 0 0 0 2 0 0 0 0 0 0 0 0 0 0 0 0 0 0 0 0 0 0 0 0 0 0 0 0 0 28 10 16 6 2 1 0 0 0 0 0
0 0 0 0 0 0 0 2 0 5 0 0 0 0 0 0 0 0 0 0 0 0 0 0 0 0 0 0 0 0 2 21 7 30 59 9 12 7 0 4 0 0 0 0 0
0 0 0 0 0 0 0 0 0 0 0 0 0 0 0 0 0 0 0 0 0 0 0 0 0 0 0 0 0 0 0 18 7 20 9 0 4 3 0 7 2 0 0 0 0
0 0 1 0 0 0 0 4 0 0 0 0 0 0 0 0 0 0 0 0 0 0 0 0 0 0 0 0 0 0 2 15 15 4 51 13 4 2 1 4 1 0 0 0 0
0 0 1 0 0 0 0 0 0 0 0 0 0 0 0 0 0 0 0 0 0 0 0 0 1 0 0 0 0 0 0 10 33 37 22 10 9 10 0 0 0 0 0 0 0
0 1 1 0 0 0 0 0 0 0 0 0 0 0 0 0 0 0 0 0 0 0 0 0 11 0 0 0 6 11 10 9 5 28 32 25 7 4 0 0 0 0 0 0 1
0 5 0 0 1 1 0 0 0 0 0 0 0 0 0 0 9 2 0 0 0 0 0 4 24 18 3 0 0 0 1 0 51 25 8 22 10 0 3 0 0 0 0 0 0
2 3 0 0 2 5 0 0 0 0 0 0 0 0 0 0 0 9 5 0 0 0 0 1 11 16 1 0 0 0 0 0 5 1 9 50 7 6 6 0 3 0 0 0 0
3 5 6 5 0 0 0 0 0 0 0 0 0 0 3 3 4 1 7 5 0 0 0 4 24 20 22 23 57 36 0 0 32 12 11 48 46 37 6 21 0 4 0 0 0
2 0 0 4 2 0 0 1 0 0 0 0 3 1 3 7 2 0 5 6 8 16 23 58 28 27 22 37 45 56 40 11 21 16 70 17 25 8 47 25 1 0 0 0 0
0 0 0 1 0 3 3 0 0 0 0 0 0 0 3 12 3 1 12 13 36 10 14 69 18 18 19 9 18 28 20 37 25 4 33 15 11 40 11 0 1 4 0 0 0
0 0 0 0 3 3 0 0 0 0 0 0 0 2 2 1 8 13 13 12 16 39 10 17 19 25 19 6 7 5 1 11 20 48 44 70 81 10 0 3 18 13 0 0 0
CIN
-0 -0 -0 -0 -0 -0 -0 -0 -0 -0 -0 -0 -0 -0 -0 -0 -2 -0 -0 -1 -2 -0 -0 -0 -0 -0 -0 -0 -0 -0 -0 -0 -0 -0 -0 -0 -0 -0 -0 -0 -1 -1 -0 -0 -0
-0 -0 -0 -0 -0 -0 -0 -0 -0 -1 -2 -0 -4 -1 -0 -4 -0 -0 -1 -0 -6 -11 -0 -0 -0 -1 -0 -0 -0 -0 -0 -0 -0 -0 -0 -0 -0 -0 -0 -0 -0 -0 -0 -1 -0
-0 -0 -0 -0 -0 -0 -0 -0 -3 -1 -0 -1 -3 -2 -0 -5 -0 -0 -0 -0 -7 -5 -1 -1 -0 -0 -1 -0 -0 -0 -0 -0 -0 -0 -0 -0 -0 -1 -0 -0 -0 -1 -2 -10 -8
-0 -0 -0 -0 -0 -0 -0 -0 -0 -0 -0 -4 -3 -0 -3 -0 -0 -5 -1 -10 -0 -0 -0 -0 -0 -0 -0 -1 -3 -0 -0 -0 -0 -0 -0 -0 -0 -0 -0 -0 -0 -0 -1 -1 -2
-0 -0 -0 -0 -0 -0 -0 -0 -0 -0 -3 -0 -0 -3 -2 -0 -0 -0 -0 -0 -0 -0 -0 -0 -0 -0 -0 -0 -0 -0 -0 -0 -0 -0 -0 -0 -0 -0 -0 -0 -0 -0 -0 -3 -0
-0 -0 -0 -0 -0 -0 -0 -0 -0 -0 -1 -1 -1 -7 -0 -0 -0 -0 -0 -0 -0 -0 -0 -0 -0 -0 -0 -0 -0 -0 -0 -0 -0 -0 -0 -0 -2 -0 -0 -0 -0 -2 -0 -0 -0
-0 -0 -0 -0 -0 -0 -0 -0 -0 -0 -0 -2 -3 -14 -0 -0 -0 -0 -0 -0 -0 -0 -0 -0 -0 -0 -0 -0 -0 -0 -0 -0 -0 -0 -0 -0 -0 -0 -0 -1 -6 -1 -6 -22 -0
-0 -0 -0 -0 -0 -0 -0 -0 -0 -0 -0 -0 -0 -1 -0 -0 -0 -0 -0 -0 -0 -0 -0 -0 -0 -0 -0 -0 -0 -0 -0 -0 -0 -0 -0 -0 -0 -0 -0 -0 -0 -7 -0 -6 -25
-0 -0 -0 -0 -0 -0 -0 -0 -0 -0 -0 -0 -1 -2 -0 -0 -0 -0 -0 -0 -0 -0 -0 -0 -0 -0 -0 -0 -0 -0 -0 -0 -0 -0 -0 -0 -0 -0 -0 -1 -0 -1 -0 -1 -0
-0 -0 -0 -0 -0 -0 -0 -0 -0 -0 -0 -0 -0 -0 -0 -0 -0 -0 -0 -0 -0 -0 -0 -0 -0 -0 -0 -0 -0 -0 -0 -0 -0 -0 -0 -0 -0 -0 -0 -0 -0 -0 -0 -0 -2
-0 -0 -0 -0 -0 -0 -0 -0 -0 -0 -0 -0 -0 -0 -0 -0 -0 -0 -0 -0 -0 -0 -0 -0 -0 -0 -0 -0 -0 -0 -0 -0 -0 -0 -0 -0 -0 -0 -0 -0 -0 -0 -1 -0 -10
-0 -0 -0 -0 -0 -0 -0 -0 -0 -0 -0 -0 -0 -0 -0 -0 -0 -0 -0 -0 -0 -0 -0 -0 -0 -0 -0 -0 -0 -0 -0 -0 -0 -0 -0 -0 -0 -0 -0 -0 -0 -4 -1 -41 -5
-0 -0 -0 -0 -0 -0 -0 -0 -0 -0 -0 -0 -0 -0 -0 -0 -0 -0 -0 -0 -0 -0 -0 -0 -0 -0 -0 -0 -0 -0 -0 -0 -0 -0 -0 -0 -0 -0 -0 -0 -0 -0 -0 -2 -0
-0 -0 -0 -0 -0 -0 -0 -0 -0 -0 -0 -0 -0 -0 -0 -0 -0 -0 -0 -0 -0 -0 -0 -0 -0 -0 -0 -0 -0 -0 -0 -0 -0 -0 -0 -0 -0 -0 -0 -0 -0 -0 -0 -0 -0
-0 -0 -0 -0 -0 -0 -0 -0 -0 -0 -0 -0 -0 -0 -0 -0 -0 -0 -0 -0 -0 -0 -0 -0 -0 -0 -0 -0 -0 -0 -0 -0 -0 -0 -0 -0 -0 -0 -0 -0 -0 -0 -0 -0 -0
-0 -0 -0 -0 -0 -0 -0 -0 -0 -0 -0 -0 -0 -0 -0 -0 -0 -0 -0 -0 -0 -0 -0 -0 -0 -0 -0 -0 -0 -0 -0 -0 -0 -0 -0 -0 -0 -0 -0 -6 -0 -0 -0 -0 -0
-0 -0 -0 -0 -0 -0 -0 -0 -0 -0 -0 -0 -0 -0 -0 -0 -0 -0 -0 -0 -0 -0 -0 -0 -0 -0 -0 -0 -0 -0 -0 -0 -0 -0 -0 -0 -0 -0 -0 -14 -0 -0 -0 -0 -0
-0 -0 -0 -0 -0 -0 -0 -0 -0 -0 -0 -0 -0 -0 -0 -0 -0 -0 -0 -0 -0 -0 -0 -0 -0 -0 -0 -0 -0 -0 -0 -0 -0 -0 -0 -1 -0 -0 -2 -31 -32 -0 -0 -0 -0
-0 -0 -0 -0 -0 -0 -0 -0 -0 -0 -0 -0 -0 -0 -0 -0 -0 -0 -0 -0 -0 -0 -0 -0 -0 -0 -0 -0 -0 -0 -0 -1 -0 -0 -0 -0 -1 -2 -2 -2 -0 -0 -0 -0 -0
-0 -0 -0 -0 -0 -0 -0 -0 -0 -0 -0 -0 -0 -0 -0 -0 -0 -0 -0 -0 -0 -0 -0 -0 -0 -0 -0 -0 -0 -0 -0 -0 -0 -0 -0 -0 -0 -0 -0 -0 -0 -0 -0 -0 -0
-0 -0 -0 -0 -0 -0 -0 -0 -0 -0 -0 -0 -0 -0 -0 -0 -0 -0 -0 -0 -0 -0 -0 -0 -0 -0 -0 -0 -0 -0 -1 -1 -6 -1 -0 -0 -0 -1 -0 -0 -0 -0 -0 -0 -0
-0 -0 -0 -0 -0 -0 -0 -0 -0 -0 -0 -0 -0 -0 -0 -0 -0 -0 -0 -0 -0 -0 -0 -2 -0 -0 -0 -0 -0 -0 -0 -0 -0 -0 -10 -0 -0 -0 -1 -0 -0 -0 -0 -0 -0
-0 -0 -0 -0 -0 -0 -0 -0 -0 -0 -0 -0 -0 -0 -0 -0 -2 -0 -0 -0 -0 -0 -0 -1 -0 -0 -0 -0 -0 -0 -0 -0 -8 -4 -0 -0 -0 -1 -3 -1 -1 -0 -0 -0 -0
-0 -0 -0 -0 -0 -0 -0 -0 -0 -0 -0 -0 -0 -0 -0 -0 -0 -0 -0 -0 -0 -0 -0 -4 -0 -0 -0 -1 -3 -0 -0 -0 -0 -0 -0 -0 -0 -0 -2 -2 -0 -0 -0 -0 -0
-0 -0 -0 -0 -0 -0 -0 -0 -0 -0 -0 -0 -0 -0 -0 -0 -0 -0 -0 -0 -0 -0 -0 -0 -0 -0 -1 -0 -0 -0 -2 -1 -0 -0 -0 -3 -1 -28 -0 -1 -1 -0 -0 -0 -0
-0 -0 -0 -0 -0 -0 -0 -0 -0 -0 -0 -0 -0 -0 -0 -0 -0 -0 -0 -0 -0 -0 -6 -2 -0 -0 -0 -0 -1 -0 -0 -0 -0 -3 -0 -4 -3 -49 -1 -0 -0 -0 -0 -0 -0
-0 -0 -0 -0 -0 -0 -0 -0 -0 -0 -0 -0 -0 -0 -0 -0 -0 -0 -0 -0 -0 -0 -4 -0 -0 -0 -0 -0 -4 -0 -1 -1 -1 -0 -2 -0 -4 -6 -0 -0 -3 -1 -0 -0 -0
Wind_Speed
19 19 19 19 19 18 18 16 16 14 15 15 13 12 12 11 8 6 9 5 2 5 5 2 3 3 4 5 5 7 8 12 17 19 20 19 24 22 23 27 26 24 26 25 19
20 21 21 21 20 19 18 16 15 14 14 14 13 11 11 12 9 5 8 3 8 5 5 4 3 5 6 5 4 8 12 14 17 19 23 25 26 27 28 26 27 29 26 25 22
21 22 22 22 22 20 18 16 14 13 14 12 13 11 12 10 10 6 14 10 5 8 4 2 3 4 8 9 7 5 14 18 20 23 25 27 25 22 25 27 28 28 30 29 24
22 22 22 23 21 19 17 16 13 12 12 9 12 13 6 9 0 8 9 9 6 4 4 2 1 4 4 4 5 7 16 19 22 22 22 24 24 24 24 29 30 32 32 31 28
21 22 22 22 22 19 16 13 11 11 10 10 9 13 6 6 7 6 1 3 2 2 2 2 6 7 6 4 9 17 17 14 17 20 19 24 23 26 29 31 28 31 32 33 25
21 21 22 23 22 18 15 13 11 11 11 11 11 10 6 4 3 2 3 3 2 2 2 4 5 6 10 11 9 11 15 19 21 21 19 18 14 18 23 28 26 23 29 23 29
20 20 21 21 20 19 16 14 11 8 10 13 8 6 3 8 3 3 2 2 1 3 3 3 4 5 2 7 7 12 16 16 11 9 15 13 18 20 22 16 16 16 20 25 28
20 20 20 20 20 19 16 12 8 5 7 6 6 4 4 2 0 2 2 4 2 2 2 2 1 3 2 7 12 9 8 10 15 13 14 13 19 21 22 18 18 19 15 20 25
19 20 21 20 20 20 15 8 4 3 6 4 6 5 5 5 3 2 3 2 2 2 2 2 3 3 4 7 9 8 11 17 15 15 16 14 24 25 23 21 20 18 18 19 17
18 19 21 18 18 20 13 6 2 5 4 1 1 5 5 2 2 1 1 4 4 2 4 4 1 4 5 5 8 12 15 14 19 17 18 19 21 24 22 18 17 15 17 17 17
17 19 21 18 14 16 11 5 5 6 6 6 4 3 4 2 3 2 1 5 5 6 5 4 8 5 5 3 8 11 14 17 18 16 15 20 21 21 13 13 14 15 15 13 15
16 19 21 20 7 16 6 6 5 3 2 2 2 1 1 3 4 4 3 5 5 6 4 8 9 5 4 7 12 15 17 16 16 15 17 19 17 14 6 10 13 17 17 15 20
15 18 20 18 5 6 13 8 3 2 5 4 1 2 2 4 2 2 4 2 6 7 6 8 10 1 7 10 14 16 15 13 17 18 21 14 14 6 3 7 11 14 15 16 15
13 15 19 17 6 2 5 3 5 3 3 7 4 3 3 3 4 2 2 4 5 8 8 9 3 4 11 15 13 15 8 12 17 15 13 17 16 17 12 5 11 14 16 15 16
10 12 15 11 4 3 5 6 5 4 1 4 4 3 2 4 5 6 1 4 8 10 5 3 6 10 13 12 7 12 11 15 18 17 19 18 14 13 14 4 10 12 14 16 15
8 9 13 3 1 4 6 5 4 2 1 3 1 1 5 5 3 1 5 5 8 9 10 16 11 7 10 8 10 12 14 16 19 13 11 16 9 12 14 7 10 11 13 16 18
6 5 5 3 4 7 5 4 2 0 3 3 1 2 5 5 4 4 6 9 8 6 6 7 13 6 5 9 8 8 12 9 7 6 10 13 10 14 21 2 8 10 13 16 16
2 3 3 3 5 7 4 2 1 1 3 1 3 7 7 1 4 4 7 11 6 7 7 5 3 6 7 6 9 15 9 8 14 15 16 18 16 11 4 4 8 10 15 16 17
3 1 1 2 5 5 4 1 3 5 3 5 11 6 6 5 5 5 9 11 2 6 4 4 6 3 6 8 6 3 8 8 11 17 17 15 20 11 13 8 10 16 19 18 19
5 4 0 5 6 5 1 2 2 3 2 2 5 2 4 3 4 2 5 4 3 4 2 4 9 11 1 5 13 13 9 7 6 6 14 11 18 13 10 15 14 18 20 20 19
3 3 4 6 4 1 1 3 3 1 3 4 6 7 8 4 3 4 6 2 2 4 4 2 6 3 5 8 11 8 9 7 5 7 12 15 9 11 19 16 10 17 19 18 15
2 3 4 4 2 2 1 2 2 3 5 6 5 12 13 6 5 7 8 5 1 2 5 4 4 10 17 14 3 9 11 8 7 13 7 13 13 18 13 5 10 16 18 15 13
2 3 3 3 2 2 2 3 4 5 6 4 6 7 2 4 5 11 8 3 4 5 4 2 5 7 7 3 1 6 10 9 10 11 17 16 13 16 9 13 15 14 15 13 14
2 3 2 1 1 3 2 4 4 5 7 7 8 6 7 8 11 8 6 5 4 9 9 2 7 13 15 17 8 8 10 12 14 11 18 18 22 22 21 17 16 13 12 14 14
1 4 2 2 4 3 3 1 6 5 5 4 5 13 9 5 10 16 16 13 12 15 14 5 12 17 18 21 20 21 17 15 16 20 20 23 26 27 23 22 15 12 11 12 14
5 3 0 1 4 7 6 7 8 5 5 7 10 7 11 12 14 18 13 11 13 9 1 2 14 17 22 22 23 25 24 19 21 23 25 26 26 27 23 12 9 10 10 11 13
2 1 3 4 4 5 6 7 5 4 10 13 8 9 12 13 13 14 15 16 17 9 7 8 9 11 19 19 15 16 17 19 19 18 17 19 23 18 17 13 10 8 9 12 13
Wind_Direction
351 348 346 343 341 336 333 332 330 334 327 322 319 317 319 302 278 221 271 344 101 128 239 286 284 317 266 250 270 265 259 261 270 285 299 309 297 290 291 284 280 275 279 282 289
351 348 345 341 337 331 327 322 324 324 318 316 319 319 317 299 243 248 1 234 148 166 234 333 332 329 279 260 261 243 265 274 297 311 312 316 314 317 304 288 285 285 280 271 267
352 348 344 340 335 329 324 319 317 320 319 326 334 321 303 270 246 67 42 103 155 226 41 50 357 300 277 306 261 270 262 295 294 307 297 298 289 296 298 289 292 280 281 279 296
355 351 347 342 336 330 324 316 320 317 323 332 333 328 291 221 13 86 68 74 74 73 101 81 42 258 292 260 251 272 279 294 295 294 300 292 302 290 277 283 276 278 281 280 281
356 355 351 346 341 340 335 334 322 324 332 324 322 315 246 200 73 102 29 66 32 355 271 200 257 278 261 255 281 269 284 301 294 293 287 282 279 280 274 273 273 274 279 282 274
357 356 353 350 348 346 343 337 341 343 337 319 293 279 246 154 98 46 339 309 285 276 183 247 298 314 289 285 276 301 307 293 283 275 280 289 295 280 283 280 291 293 259 275 271
358 356 351 350 348 350 345 336 337 346 342 347 135 194 44 83 19 324 241 25 43 311 300 338 296 254 16 296 282 286 286 290 292 306 324 345 289 288 309 337 305 300 300 285 260
358 355 352 345 342 344 338 334 337 354 349 347 327 256 69 105 96 72 204 109 74 85 27 326 297 291 245 282 263 266 266 311 331 330 313 318 296 305 309 300 285 274 271 276 286
357 354 351 344 338 341 334 346 16 355 327 301 230 281 105 133 219 10 322 309 125 147 128 62 247 314 195 288 291 176 320 316 315 323 320 303 295 308 306 306 295 277 288 272 270
353 352 350 345 338 338 330 295 352 219 215 256 170 206 166 62 40 332 129 257 221 189 212 231 247 250 228 272 321 317 314 308 308 315 319 308 299 308 308 306 306 297 281 290 303
353 349 349 348 345 339 317 220 217 177 46 9 38 53 85 79 198 171 181 200 207 226 278 171 266 272 355 266 286 297 295 296 294 323 301 308 302 311 352 355 349 342 329 310 275
351 348 347 346 15 359 4 53 50 350 245 82 46 90 16 345 228 161 236 245 238 287 280 223 259 55 325 284 282 286 286 295 308 299 313 301 312 297 343 18 6 3 17 18 356
348 349 347 350 235 38 63 57 353 312 269 147 25 300 33 289 301 94 249 347 277 277 279 290 298 299 282 288 288 292 294 311 311 311 296 287 301 289 342 36 12 19 5 2 4
344 350 344 344 250 2 54 4 332 315 258 143 183 128 194 305 218 355 249 310 234 301 319 277 78 272 283 280 291 290 335 308 301 302 299 315 292 282 276 322 17 10 1 2 3
340 349 344 353 343 26 357 324 305 239 283 133 149 49 239 274 342 156 155 220 275 292 255 310 263 293 281 296 308 285 324 295 288 284 294 285 273 274 272 282 5 6 1 360 2
350 353 329 268 26 23 331 312 222 230 56 160 128 250 281 173 214 311 235 221 281 284 247 267 294 280 279 300 276 295 290 286 272 270 275 276 282 289 304 342 331 354 355 356 355
352 6 342 317 1 334 316 218 339 242 152 143 277 253 309 271 236 241 247 244 267 287 278 295 243 197 259 278 211 245 288 309 279 255 266 289 262 275 287 322 337 329 345 357 350
27 310 59 35 328 319 262 246 323 335 25 21 273 269 257 342 195 261 280 265 172 263 288 310 231 196 154 263 306 296 287 274 292 292 306 314 285 281 2 317 289 323 341 351 348
274 311 237 36 324 303 268 297 351 0 359 323 294 253 194 205 292 304 255 277 283 212 254 283 237 131 233 281 273 16 242 279 291 277 269 267 269 282 280 243 328 341 329 342 341
304 309 169 329 315 253 67 285 328 9 330 270 276 260 279 243 277 284 290 133 195 226 175 327 282 269 330 282 251 248 315 268 225 274 283 293 304 294 328 341 342 326 325 330 333
276 293 74 329 269 230 119 312 295 262 240 243 296 285 262 276 245 275 276 230 227 165 205 304 232 253 200 236 267 220 238 238 279 273 291 295 282 328 338 321 329 317 320 324 335
308 276 44 309 295 296 239 339 23 265 219 258 278 273 274 274 252 246 264 229 44 235 249 188 286 266 280 291 291 277 275 272 265 269 242 280 274 289 304 320 314 326 315 313 330
252 276 97 299 235 220 221 251 263 226 234 209 250 234 295 248 267 245 265 319 240 240 256 180 231 284 282 154 215 246 247 227 260 279 261 277 283 293 267 260 318 334 321 317 329
195 270 168 37 327 310 348 266 252 208 259 252 258 270 247 258 248 261 262 271 257 246 260 206 239 252 270 285 308 253 248 260 239 254 264 264 285 297 296 311 327 314 323 324 324
165 240 356 191 216 179 144 212 255 254 226 238 248 230 215 242 267 257 259 274 274 256 247 244 261 267 268 264 269 277 263 251 243 247 257 277 288 287 295 302 309 314 312 321 324
160 179 169 225 149 192 182 210 234 246 205 225 236 258 232 238 252 286 289 272 267 266 128 214 267 278 282 282 273 267 272 258 245 254 262 268 277 277 289 314 301 298 310 317 325
132 82 146 154 169 172 212 225 245 209 228 251 260 267 268 271 289 288 295 288 274 245 210 225 258 275 277 288 302 274 267 261 273 257 260 264 265 291 294 283 285 304 306 311 325